This is the latest recevied weather packets stored in our database for station/object KD8OUK. If no packets are shown the sender has not sent any weather packets the latest 10 day(s).
| Time | Temp. | Humidity | Pressure | Rain* | Wind** | Luminosity | Snow |
|---|---|---|---|---|---|---|---|
| 1777367129 | 13.89° C | 99% | 1009.3 hPa | 0 mm | - | - | - |
| 1777366821 | 14.44° C | 99% | 1009.3 hPa | 0 mm | - | - | - |
| 1777366531 | 14.44° C | 99% | 1009.3 hPa | 0 mm | - | - | - |
| 1777366224 | 14.44° C | 99% | 1009 hPa | 0 mm | - | - | - |
| 1777365917 | 14.44° C | 99% | 1008.6 hPa | 0 mm | - | - | - |
| 1777365626 | 14.44° C | 99% | 1008.6 hPa | 0 mm | - | - | - |
| 1777365318 | 14.44° C | 99% | 1008 hPa | 0 mm | - | - | - |
| 1777365029 | 14.44° C | 99% | 1008 hPa | 0 mm | - | - | - |
| 1777364721 | 14.44° C | 99% | 1007.7 hPa | 0 mm | - | - | - |
| 1777364425 | 14.44° C | 99% | 1007.5 hPa | 0 mm | - | - | - |
| 1777364124 | 14.44° C | 99% | 1007.3 hPa | 0 mm | - | - | - |
| 1777363815 | 14.44° C | 99% | 1006.9 hPa | 0 mm | - | - | - |
| 1777363520 | 14.44° C | 99% | 1006.9 hPa | 0.25 mm | - | - | - |
| 1777363218 | 14.44° C | 99% | 1006.8 hPa | 1.02 mm | - | - | - |
| 1777362916 | 14.44° C | 99% | 1006.7 hPa | 1.02 mm | - | - | - |
| 1777362620 | 14.44° C | 99% | 1006.6 hPa | 1.27 mm | - | - | - |
| 1777362330 | 14.44° C | 99% | 1006.5 hPa | 1.78 mm | - | - | - |
| 1777362022 | 14.44° C | 99% | 1006.5 hPa | 2.54 mm | - | - | - |
| 1777361732 | 14.44° C | 99% | 1005.9 hPa | 3.3 mm | - | - | - |
| 1777361425 | 15° C | 99% | 1005.9 hPa | 4.32 mm | - | - | - |
| 1777361117 | 15° C | 99% | 1006.7 hPa | 4.32 mm | - | - | - |
| 1777360827 | 15° C | 99% | 1006.9 hPa | 4.57 mm | - | - | - |
| 1777360520 | 15° C | 99% | 1007.4 hPa | 4.57 mm | - | - | - |
| 1777360229 | 15° C | 99% | 1009.3 hPa | 5.08 mm | - | - | - |
| 1777359921 | 15° C | 99% | 1009.3 hPa | 5.08 mm | - | - | - |
* Rain latest hour (hover to see other rain measurements)
** Current wind speed in m/s (hover to see current wind gust speed)